CWAE

Whistler  Airport

British Columbia, Canada
Issued Wind Visibility Ceiling Temperature Dew Point Humidity Barometer
Nov-18
01:00 UTC
180°
2 KTS
15 miles Overcast
5,000' AGL
C
34° F
C
32° F
93% 30.09" Hg
1021.1 hPa
VFR
Nov-18
00:00 UTC
230°
2 KTS
15 miles Broken
5,700' AGL
C
34° F
C
32° F
93% 30.07" Hg
1020.4 hPa
VFR
Nov-17
23:00 UTC
15 miles Broken
5,500' AGL
C
34° F
C
32° F
93% 30.05" Hg
1019.4 hPa
VFR
Nov-17
22:00 UTC
180°
4 KTS
15 miles Broken
6,000' AGL
C
34° F
C
32° F
93% 30.02" Hg
1018.4 hPa
VFR
Nov-17
21:00 UTC
15 miles Broken
5,400' AGL
C
34° F
C
32° F
93% 29.99" Hg
1017.6 hPa
VFR
Nov-17
20:00 UTC
180°
2 KTS
15 miles Broken
5,200' AGL
C
34° F
C
32° F
93% 29.97" Hg
1016.9 hPa
VFR
Nov-17
19:00 UTC
180°
2 KTS
15 miles   C
34° F
C
32° F
93% 29.94" Hg
1015.7 hPa
VFR
Nov-17
18:00 UTC
12 miles Broken
5,000' AGL
      29.9" Hg
1014.6 hPa
VFR
Nov-17
17:00 UTC
180°
2 KTS
15 miles Broken
5,800' AGL
      29.87" Hg
1013.7 hPa
VFR
Nov-17
16:53 UTC
180°
2 KTS
15 miles Broken
6,000' AGL
      29.87" Hg
1013.5 hPa
VFR
Nov-17
16:46 UTC
140°
2 KTS
10 miles Broken
1,100' AGL
      29.86" Hg
1013.3 hPa
MVFR
Nov-17
16:00 UTC
15 miles Broken
6,100' AGL
      29.83" Hg
1012.1 hPa
VFR
Nov-17
15:00 UTC
180°
3 KTS
10 miles Broken
6,000' AGL
      29.79" Hg
1010.7 hPa
VFR